Language: 


Des rapports , des résumés tant et plus, au choix de chacun....


Données Historiques de Météogheer
Journalier Rapport pour Février 12, 2018 Unitée:  Métrique    Impériale   Les deux
Suivant Jour »
Journalier Hebdomadaire Mensuel Annuel Sur mesure
  Max: Min: Moyenne:
Température: 8.1 °C 0.2 °C 3.1 °C
Point de rosée: 1.0 °C -3.0 °C -0.9 °C
Humidité: 89% 49% 75%
Vent: 21.6km/h 0.0km/h 8.4km/h
Rafales: 27.7km/h - -
Vent- - WSW
Pression: 1016.1 hPa 1009.0 hPa -
Pluie: 0.0 mm    
Historical Graphs
 
 
Données tabulaires pour Février 12, 2018
Heure Température Point de rosée Pression Vent Vent Rafales Humidité Pluie Taux (Horaire) Conditions
00:01 1.0 °C 0.0 °C 1009.0 hPa West 6.9 km/h 10.5 km/h 89% 0.0 mm
00:06 1.0 °C 0.0 °C 1009.0 hPa West 9.7 km/h 11.9 km/h 89% 0.0 mm
00:11 1.0 °C 0.0 °C 1009.0 hPa West 7.9 km/h 11.9 km/h 89% 0.0 mm
00:16 1.0 °C 0.0 °C 1009.0 hPa West 10.1 km/h 12.2 km/h 89% 0.0 mm
00:21 1.1 °C 0.0 °C 1009.0 hPa WSW 10.5 km/h 12.2 km/h 89% 0.0 mm
00:26 1.1 °C 0.0 °C 1009.0 hPa West 9.7 km/h 13.0 km/h 89% 0.0 mm
00:32 1.1 °C 0.0 °C 1009.0 hPa West 7.9 km/h 13.0 km/h 89% 0.0 mm
00:37 1.2 °C 0.0 °C 1009.0 hPa West 6.9 km/h 13.0 km/h 89% 0.0 mm
00:42 1.2 °C 0.0 °C 1009.0 hPa West 10.5 km/h 13.0 km/h 89% 0.0 mm
00:47 1.2 °C 0.0 °C 1009.0 hPa West 7.6 km/h 13.0 km/h 89% 0.0 mm
00:52 1.2 °C 0.0 °C 1009.0 hPa WSW 11.6 km/h 13.0 km/h 88% 0.0 mm
00:57 1.2 °C 0.0 °C 1009.0 hPa West 8.7 km/h 13.0 km/h 88% 0.0 mm
01:02 1.2 °C 0.0 °C 1009.0 hPa West 9.0 km/h 13.0 km/h 88% 0.0 mm
01:07 1.3 °C 0.0 °C 1009.0 hPa WSW 10.1 km/h 12.2 km/h 88% 0.0 mm
01:12 1.3 °C 0.0 °C 1009.0 hPa WSW 5.8 km/h 12.2 km/h 88% 0.0 mm
01:17 1.3 °C 0.0 °C 1009.0 hPa Calm   12.2 km/h 88% 0.0 mm
01:22 1.3 °C 0.0 °C 1009.0 hPa WNW 9.7 km/h 10.5 km/h 88% 0.0 mm
01:27 1.3 °C 0.0 °C 1009.0 hPa WSW 10.5 km/h 11.6 km/h 87% 0.0 mm
01:32 1.4 °C 0.0 °C 1010.0 hPa West 9.0 km/h 11.9 km/h 87% 0.0 mm
01:37 1.4 °C 0.0 °C 1010.0 hPa WSW 9.3 km/h 13.7 km/h 87% 0.0 mm
01:42 1.4 °C 0.0 °C 1010.0 hPa West 6.1 km/h 13.7 km/h 87% 0.0 mm
01:47 1.4 °C 0.0 °C 1009.0 hPa West 9.3 km/h 14.0 km/h 87% 0.0 mm
01:52 1.5 °C 0.0 °C 1009.0 hPa WSW 15.4 km/h 17.2 km/h 86% 0.0 mm
01:57 1.6 °C 0.0 °C 1009.0 hPa WSW 10.5 km/h 17.2 km/h 86% 0.0 mm
02:02 1.6 °C 0.0 °C 1009.0 hPa West 9.7 km/h 17.2 km/h 86% 0.0 mm
02:07 1.6 °C 0.0 °C 1009.0 hPa WSW 10.5 km/h 17.2 km/h 86% 0.0 mm
02:12 1.7 °C 0.0 °C 1009.0 hPa West 5.5 km/h 13.7 km/h 86% 0.0 mm
02:17 1.8 °C 0.0 °C 1010.0 hPa WSW 6.9 km/h 12.6 km/h 85% 0.0 mm
02:22 1.8 °C 0.0 °C 1010.0 hPa SSW 9.7 km/h 13.0 km/h 85% 0.0 mm
02:27 1.9 °C 0.0 °C 1010.0 hPa WNW 9.3 km/h 16.6 km/h 85% 0.0 mm
02:33 2.0 °C 0.0 °C 1010.0 hPa WSW 11.6 km/h 16.6 km/h 84% 0.0 mm
02:38 2.0 °C 0.0 °C 1010.0 hPa West 6.1 km/h 14.0 km/h 84% 0.0 mm
02:43 2.0 °C 0.0 °C 1010.0 hPa NW 12.6 km/h 14.8 km/h 83% 0.0 mm
02:48 2.0 °C 0.0 °C 1010.0 hPa West 9.7 km/h 14.8 km/h 83% 0.0 mm
02:53 2.0 °C 0.0 °C 1010.0 hPa West 3.2 km/h 19.1 km/h 83% 0.0 mm
02:58 2.0 °C 0.0 °C 1010.0 hPa West 13.7 km/h 19.1 km/h 83% 0.0 mm
03:03 2.0 °C 0.0 °C 1011.1 hPa WSW 2.1 km/h 14.3 km/h 82% 0.0 mm
03:08 2.0 °C 0.0 °C 1011.1 hPa WNW 10.8 km/h 14.3 km/h 82% 0.0 mm
03:13 2.0 °C 0.0 °C 1011.1 hPa SSW 9.3 km/h 14.0 km/h 82% 0.0 mm
03:18 2.0 °C 0.0 °C 1011.1 hPa South 7.9 km/h 16.6 km/h 82% 0.0 mm
03:23 2.0 °C 0.0 °C 1011.1 hPa NW 8.7 km/h 16.6 km/h 82% 0.0 mm
03:28 2.0 °C 0.0 °C 1011.1 hPa WSW 11.1 km/h 15.4 km/h 82% 0.0 mm
03:33 2.0 °C 0.0 °C 1011.1 hPa West 8.7 km/h 16.9 km/h 82% 0.0 mm
03:38 2.0 °C 0.0 °C 1011.1 hPa WNW 15.8 km/h 17.7 km/h 82% 0.0 mm
03:43 2.0 °C -1.0 °C 1011.1 hPa WSW 10.5 km/h 17.7 km/h 81% 0.0 mm
03:48 2.0 °C 0.0 °C 1011.1 hPa WSW 9.0 km/h 17.7 km/h 82% 0.0 mm
03:53 1.9 °C -1.0 °C 1011.1 hPa West 12.2 km/h 14.8 km/h 82% 0.0 mm
03:58 1.9 °C -1.0 °C 1011.1 hPa WSW 11.9 km/h 16.6 km/h 82% 0.0 mm
04:03 1.9 °C -1.0 °C 1011.1 hPa West 12.2 km/h 16.6 km/h 82% 0.0 mm
04:08 1.9 °C -1.0 °C 1011.1 hPa WSW 7.9 km/h 16.6 km/h 82% 0.0 mm
04:14 1.8 °C -1.0 °C 1011.1 hPa WNW 12.2 km/h 16.6 km/h 82% 0.0 mm
04:19 1.8 °C -1.0 °C 1011.1 hPa West 11.6 km/h 19.1 km/h 82% 0.0 mm
04:24 1.8 °C -1.0 °C 1011.1 hPa West 4.7 km/h 19.1 km/h 82% 0.0 mm
04:29 1.9 °C -1.0 °C 1010.0 hPa West 6.1 km/h 15.4 km/h 83% 0.0 mm
04:34 1.9 °C -1.0 °C 1010.0 hPa West 9.0 km/h 15.4 km/h 83% 0.0 mm
04:39 1.9 °C -1.0 °C 1010.0 hPa West 9.7 km/h 15.4 km/h 83% 0.0 mm
04:44 1.8 °C -1.0 °C 1010.0 hPa West 14.0 km/h 14.3 km/h 83% 0.0 mm
04:49 1.7 °C -1.0 °C 1010.0 hPa WNW 9.0 km/h 14.0 km/h 82% 0.0 mm
04:54 1.7 °C -1.0 °C 1010.0 hPa West 10.1 km/h 17.7 km/h 82% 0.0 mm
04:59 1.7 °C -1.0 °C 1011.1 hPa West 9.7 km/h 17.7 km/h 82% 0.0 mm
05:04 1.7 °C -1.0 °C 1011.1 hPa West 9.3 km/h 16.9 km/h 82% 0.0 mm
05:09 1.7 °C -1.0 °C 1011.1 hPa WSW 15.1 km/h 16.9 km/h 83% 0.0 mm
05:14 1.7 °C -1.0 °C 1011.1 hPa WSW 10.8 km/h 15.1 km/h 83% 0.0 mm
05:19 1.6 °C -1.0 °C 1011.1 hPa West 8.7 km/h 13.7 km/h 83% 0.0 mm
05:24 1.6 °C -1.0 °C 1011.1 hPa WSW 11.6 km/h 17.2 km/h 83% 0.0 mm
05:29 1.6 °C -1.0 °C 1011.1 hPa West 10.1 km/h 17.2 km/h 83% 0.0 mm
05:34 1.6 °C -1.0 °C 1011.1 hPa WSW 7.9 km/h 16.6 km/h 82% 0.0 mm
05:39 1.5 °C -1.0 °C 1011.1 hPa West 9.0 km/h 14.0 km/h 83% 0.0 mm
05:44 1.4 °C -1.0 °C 1011.1 hPa West 12.2 km/h 14.0 km/h 83% 0.0 mm
05:49 1.4 °C -1.0 °C 1011.1 hPa West 11.9 km/h 14.0 km/h 83% 0.0 mm
05:54 1.4 °C -1.0 °C 1011.1 hPa WNW 11.9 km/h 14.0 km/h 83% 0.0 mm
05:59 1.4 °C -1.0 °C 1012.1 hPa West 12.2 km/h 13.7 km/h 83% 0.0 mm
06:04 1.4 °C -1.0 °C 1012.1 hPa West 10.5 km/h 13.7 km/h 83% 0.0 mm
06:10 1.4 °C -1.0 °C 1012.1 hPa West 6.4 km/h 13.7 km/h 83% 0.0 mm
06:15 1.3 °C -1.0 °C 1012.1 hPa West 9.7 km/h 13.0 km/h 83% 0.0 mm
06:20 1.2 °C -1.0 °C 1012.1 hPa WSW 9.0 km/h 12.6 km/h 84% 0.0 mm
06:25 1.1 °C -1.0 °C 1012.1 hPa WSW 10.8 km/h 12.6 km/h 84% 0.0 mm
06:30 1.0 °C -1.0 °C 1012.1 hPa WSW 8.7 km/h 13.7 km/h 84% 0.0 mm
06:35 1.0 °C -1.0 °C 1012.1 hPa West 12.6 km/h 14.3 km/h 84% 0.0 mm
06:40 0.9 °C -1.0 °C 1012.1 hPa Calm   14.3 km/h 85% 0.0 mm
06:45 0.9 °C -1.0 °C 1013.1 hPa WSW 10.5 km/h 12.6 km/h 85% 0.0 mm
06:50 0.9 °C -1.0 °C 1013.1 hPa WSW 10.5 km/h 14.0 km/h 85% 0.0 mm
06:55 0.8 °C -1.0 °C 1013.1 hPa West 12.2 km/h 14.8 km/h 86% 0.0 mm
07:00 0.8 °C -1.0 °C 1013.1 hPa West 9.0 km/h 14.8 km/h 86% 0.0 mm
07:05 0.7 °C -1.0 °C 1013.1 hPa WSW 6.9 km/h 12.6 km/h 86% 0.0 mm
07:10 0.6 °C -1.0 °C 1013.1 hPa WSW 6.9 km/h 12.2 km/h 86% 0.0 mm
07:15 0.6 °C -1.0 °C 1013.1 hPa WSW 10.1 km/h 12.2 km/h 86% 0.0 mm
07:20 0.6 °C -1.0 °C 1013.1 hPa Calm   10.5 km/h 86% 0.0 mm
07:25 0.5 °C -1.0 °C 1013.1 hPa West 6.4 km/h 10.1 km/h 86% 0.0 mm
07:30 0.5 °C -1.0 °C 1013.1 hPa West 8.7 km/h 13.0 km/h 86% 0.0 mm
07:35 0.5 °C -1.0 °C 1013.1 hPa West 5.8 km/h 13.0 km/h 87% 0.0 mm
07:40 0.6 °C -1.0 °C 1013.1 hPa West 6.9 km/h 13.0 km/h 87% 0.0 mm
07:45 0.5 °C -1.0 °C 1013.1 hPa WSW 9.0 km/h 13.0 km/h 87% 0.0 mm
07:50 0.4 °C -1.0 °C 1013.1 hPa West 8.7 km/h 13.0 km/h 87% 0.0 mm
07:55 0.4 °C -1.0 °C 1013.1 hPa WSW 7.9 km/h 13.0 km/h 87% 0.0 mm
08:01 0.3 °C -1.0 °C 1013.1 hPa West 10.5 km/h 11.6 km/h 87% 0.0 mm
08:06 0.3 °C -1.0 °C 1013.1 hPa West 5.8 km/h 11.9 km/h 87% 0.0 mm
08:11 0.3 °C -1.0 °C 1013.1 hPa West 9.3 km/h 11.9 km/h 88% 0.0 mm
08:16 0.4 °C -1.0 °C 1013.1 hPa WSW 5.0 km/h 11.9 km/h 88% 0.0 mm
08:21 0.3 °C -1.0 °C 1013.1 hPa WSW 2.1 km/h 12.6 km/h 88% 0.0 mm
08:26 0.3 °C -1.0 °C 1013.1 hPa West 6.9 km/h 12.6 km/h 88% 0.0 mm
08:31 0.3 °C -1.0 °C 1014.1 hPa West 6.1 km/h 12.2 km/h 88% 0.0 mm
08:36 0.4 °C -1.0 °C 1014.1 hPa WSW 11.1 km/h 12.2 km/h 88% 0.0 mm
08:41 0.3 °C -1.0 °C 1014.1 hPa Calm   11.9 km/h 88% 0.0 mm
08:46 0.3 °C -1.0 °C 1014.1 hPa WSW 6.9 km/h 11.1 km/h 88% 0.0 mm
08:51 0.2 °C -1.0 °C 1014.1 hPa WSW 6.4 km/h 9.7 km/h 88% 0.0 mm
08:56 0.3 °C -1.0 °C 1014.1 hPa WSW 5.5 km/h 9.7 km/h 88% 0.0 mm
09:01 0.5 °C -1.0 °C 1014.1 hPa West 7.9 km/h 9.7 km/h 89% 0.0 mm
09:06 0.6 °C -1.0 °C 1014.1 hPa West 4.7 km/h 9.0 km/h 89% 0.0 mm
09:11 0.7 °C -1.0 °C 1014.1 hPa West 4.7 km/h 10.5 km/h 89% 0.0 mm
09:16 0.9 °C 0.0 °C 1015.1 hPa WSW 7.9 km/h 10.5 km/h 89% 0.0 mm
09:21 1.1 °C -1.0 °C 1015.1 hPa WSW 8.7 km/h 10.1 km/h 88% 0.0 mm
09:26 1.3 °C 0.0 °C 1015.1 hPa WSW 8.7 km/h 9.7 km/h 88% 0.0 mm
09:31 1.5 °C 0.0 °C 1015.1 hPa West 9.7 km/h 12.6 km/h 88% 0.0 mm
09:36 1.6 °C 0.0 °C 1015.1 hPa SSW 5.5 km/h 12.6 km/h 87% 0.0 mm
09:41 1.8 °C 0.0 °C 1015.1 hPa West 8.7 km/h 10.5 km/h 87% 0.0 mm
09:46 1.9 °C 0.0 °C 1015.1 hPa WSW 10.1 km/h 14.0 km/h 87% 0.0 mm
09:51 2.0 °C 0.0 °C 1015.1 hPa WSW 7.9 km/h 14.0 km/h 86% 0.0 mm
09:56 2.2 °C 0.0 °C 1015.1 hPa West 5.5 km/h 12.2 km/h 85% 0.0 mm
10:01 2.3 °C 1.0 °C 1015.1 hPa West 8.7 km/h 12.2 km/h 85% 0.0 mm
10:07 2.6 °C 1.0 °C 1015.1 hPa Calm   11.9 km/h 85% 0.0 mm
10:12 2.8 °C 1.0 °C 1015.1 hPa WSW 7.6 km/h 11.9 km/h 84% 0.0 mm
10:17 2.9 °C 1.0 °C 1014.1 hPa WSW 7.9 km/h 11.9 km/h 84% 0.0 mm
10:22 3.1 °C 1.0 °C 1014.1 hPa West 10.5 km/h 11.6 km/h 83% 0.0 mm
10:27 3.3 °C 1.0 °C 1014.1 hPa WSW 5.0 km/h 11.6 km/h 83% 0.0 mm
10:32 3.4 °C 1.0 °C 1015.1 hPa WSW 6.4 km/h 13.0 km/h 82% 0.0 mm
10:37 3.6 °C 1.0 °C 1015.1 hPa WSW 10.1 km/h 13.0 km/h 81% 0.0 mm
10:42 3.7 °C 1.0 °C 1015.1 hPa WSW 10.5 km/h 11.9 km/h 81% 0.0 mm
10:47 3.9 °C 1.0 °C 1015.1 hPa Calm   14.0 km/h 80% 0.0 mm
10:52 4.1 °C 1.0 °C 1015.1 hPa WSW 3.2 km/h 14.0 km/h 79% 0.0 mm
10:57 4.3 °C 1.0 °C 1015.1 hPa West 12.6 km/h 16.3 km/h 78% 0.0 mm
11:02 4.4 °C 1.0 °C 1015.1 hPa WNW 10.1 km/h 16.3 km/h 76% 0.0 mm
11:07 4.5 °C 1.0 °C 1015.1 hPa West 13.0 km/h 16.6 km/h 76% 0.0 mm
11:12 4.6 °C 1.0 °C 1015.1 hPa West 5.0 km/h 16.6 km/h 75% 0.0 mm
11:17 4.8 °C 1.0 °C 1015.1 hPa West 6.4 km/h 14.8 km/h 75% 0.0 mm
11:22 4.8 °C 0.0 °C 1015.1 hPa West 12.2 km/h 19.5 km/h 73% 0.0 mm
11:27 4.9 °C 1.0 °C 1015.1 hPa WSW 8.7 km/h 19.8 km/h 73% 0.0 mm
11:32 5.1 °C 1.0 °C 1016.1 hPa WSW 12.6 km/h 19.8 km/h 73% 0.0 mm
11:37 5.4 °C 1.0 °C 1016.1 hPa West 13.7 km/h 14.0 km/h 73% 0.0 mm
11:42 5.3 °C 0.0 °C 1016.1 hPa WSW 9.3 km/h 21.2 km/h 69% 0.0 mm
11:47 5.4 °C 1.0 °C 1016.1 hPa WSW 14.3 km/h 21.2 km/h 70% 0.0 mm
11:52 5.4 °C 0.0 °C 1016.1 hPa West 11.6 km/h 17.2 km/h 69% 0.0 mm
11:57 5.6 °C 1.0 °C 1016.1 hPa West 16.6 km/h 19.8 km/h 69% 0.0 mm
12:02 5.7 °C 1.0 °C 1016.1 hPa WNW 7.9 km/h 19.8 km/h 69% 0.0 mm
12:07 5.9 °C 1.0 °C 1016.1 hPa West 17.2 km/h 19.8 km/h 69% 0.0 mm
12:12 5.8 °C 1.0 °C 1016.1 hPa NW 8.7 km/h 20.6 km/h 67% 0.0 mm
12:17 6.0 °C 0.0 °C 1015.1 hPa WSW 12.6 km/h 20.6 km/h 66% 0.0 mm
12:22 6.1 °C 0.0 °C 1015.1 hPa West 19.8 km/h 19.8 km/h 66% 0.0 mm
12:27 6.3 °C 1.0 °C 1015.1 hPa WSW 11.9 km/h 19.8 km/h 65% 0.0 mm
12:32 6.4 °C 0.0 °C 1016.1 hPa West 14.0 km/h 16.9 km/h 64% 0.0 mm
12:37 6.5 °C 1.0 °C 1016.1 hPa West 4.7 km/h 16.3 km/h 64% 0.0 mm
12:42 6.6 °C 0.0 °C 1016.1 hPa West 14.0 km/h 19.8 km/h 61% 0.0 mm
12:47 6.5 °C 0.0 °C 1016.1 hPa WSW 15.4 km/h 19.8 km/h 60% 0.0 mm
12:53 6.4 °C -1.0 °C 1016.1 hPa WSW 14.0 km/h 21.2 km/h 59% 0.0 mm
12:58 6.6 °C 0.0 °C 1016.1 hPa WNW 8.7 km/h 21.2 km/h 62% 0.0 mm
13:03 6.6 °C -1.0 °C 1015.1 hPa WSW 16.3 km/h 21.2 km/h 59% 0.0 mm
13:08 6.7 °C -1.0 °C 1015.1 hPa North 11.1 km/h 21.2 km/h 59% 0.0 mm
13:13 6.8 °C -1.0 °C 1015.1 hPa West 13.0 km/h 21.2 km/h 58% 0.0 mm
13:18 6.8 °C -1.0 °C 1015.1 hPa WSW 6.9 km/h 21.2 km/h 56% 0.0 mm
13:23 6.6 °C -1.0 °C 1015.1 hPa West 13.0 km/h 15.8 km/h 56% 0.0 mm
13:28 6.3 °C -2.0 °C 1015.1 hPa WNW 6.9 km/h 14.0 km/h 56% 0.0 mm
13:33 6.3 °C -1.0 °C 1015.1 hPa West 16.9 km/h 16.9 km/h 57% 0.0 mm
13:38 6.5 °C -1.0 °C 1015.1 hPa SSW 9.0 km/h 16.9 km/h 59% 0.0 mm
13:43 7.1 °C -1.0 °C 1015.1 hPa South 7.9 km/h 16.9 km/h 58% 0.0 mm
13:48 7.6 °C 0.0 °C 1015.1 hPa West 11.6 km/h 16.9 km/h 58% 0.0 mm
13:53 7.7 °C 0.0 °C 1015.1 hPa WSW 15.4 km/h 17.7 km/h 57% 0.0 mm
13:58 7.9 °C 0.0 °C 1015.1 hPa WSW 12.2 km/h 20.1 km/h 57% 0.0 mm
14:03 7.5 °C -1.0 °C 1015.1 hPa West 11.6 km/h 20.6 km/h 55% 0.0 mm
14:08 7.7 °C -1.0 °C 1015.1 hPa West 12.6 km/h 20.6 km/h 54% 0.0 mm
14:13 7.8 °C -1.0 °C 1015.1 hPa WSW 17.2 km/h 17.2 km/h 53% 0.0 mm
14:18 7.7 °C -1.0 °C 1015.1 hPa West 10.1 km/h 22.4 km/h 52% 0.0 mm
14:23 7.8 °C -1.0 °C 1015.1 hPa West 10.8 km/h 22.4 km/h 53% 0.0 mm
14:28 7.9 °C -1.0 °C 1015.1 hPa WSW 12.2 km/h 20.1 km/h 52% 0.0 mm
14:33 8.1 °C -1.0 °C 1015.1 hPa West 9.3 km/h 19.8 km/h 53% 0.0 mm
14:38 8.0 °C -1.0 °C 1015.1 hPa West 17.7 km/h 19.5 km/h 52% 0.0 mm
14:43 7.9 °C -1.0 °C 1015.1 hPa WSW 16.3 km/h 24.5 km/h 52% 0.0 mm
14:48 7.8 °C -2.0 °C 1015.1 hPa WSW 16.9 km/h 24.5 km/h 50% 0.0 mm
14:53 7.8 °C -2.0 °C 1015.1 hPa West 12.2 km/h 21.2 km/h 51% 0.0 mm
14:58 7.5 °C -2.0 °C 1015.1 hPa West 20.6 km/h 27.7 km/h 49% 0.0 mm
15:04 7.4 °C -3.0 °C 1015.1 hPa WSW 21.6 km/h 27.7 km/h 49% 0.0 mm
15:09 7.4 °C -3.0 °C 1015.1 hPa West 16.6 km/h 24.8 km/h 49% 0.0 mm
15:14 7.6 °C -2.0 °C 1015.1 hPa WSW 13.7 km/h 24.8 km/h 50% 0.0 mm
15:19 7.3 °C -2.0 °C 1015.1 hPa WSW 13.7 km/h 20.9 km/h 50% 0.0 mm
15:24 7.3 °C -2.0 °C 1015.1 hPa West 13.7 km/h 19.8 km/h 51% 0.0 mm
15:29 7.2 °C -2.0 °C 1016.1 hPa West 18.0 km/h 18.0 km/h 51% 0.0 mm
15:34 7.4 °C -2.0 °C 1016.1 hPa WSW 12.6 km/h 18.0 km/h 52% 0.0 mm
15:39 7.3 °C -3.0 °C 1016.1 hPa West 14.0 km/h 22.4 km/h 49% 0.0 mm
15:44 7.3 °C -3.0 °C 1015.1 hPa WSW 15.8 km/h 22.4 km/h 49% 0.0 mm
15:49 7.1 °C -3.0 °C 1015.1 hPa West 9.0 km/h 21.2 km/h 50% 0.0 mm
15:54 7.1 °C -3.0 °C 1015.1 hPa West 14.0 km/h 21.2 km/h 50% 0.0 mm
15:59 7.3 °C -2.0 °C 1015.1 hPa West 17.7 km/h 20.6 km/h 50% 0.0 mm
16:04 7.1 °C -3.0 °C 1015.1 hPa WSW 14.0 km/h 24.5 km/h 49% 0.0 mm
16:09 7.1 °C -3.0 °C 1015.1 hPa WSW 20.6 km/h 24.5 km/h 49% 0.0 mm
16:14 6.9 °C -3.0 °C 1015.1 hPa West 16.3 km/h 20.6 km/h 50% 0.0 mm
16:19 6.7 °C -3.0 °C 1015.1 hPa WSW 11.9 km/h 20.6 km/h 50% 0.0 mm
16:24 6.7 °C -3.0 °C 1015.1 hPa West 12.2 km/h 17.2 km/h 51% 0.0 mm
16:29 6.5 °C -2.0 °C 1015.1 hPa West 15.1 km/h 16.3 km/h 52% 0.0 mm
16:34 6.6 °C -2.0 °C 1015.1 hPa SW 9.7 km/h 16.3 km/h 53% 0.0 mm
16:39 6.6 °C -2.0 °C 1015.1 hPa WNW 5.8 km/h 16.3 km/h 53% 0.0 mm
16:45 6.5 °C -2.0 °C 1014.1 hPa West 6.1 km/h 15.4 km/h 53% 0.0 mm
16:50 6.4 °C -2.0 °C 1014.1 hPa West 9.3 km/h 15.4 km/h 53% 0.0 mm
16:55 6.3 °C -2.0 °C 1014.1 hPa WSW 16.6 km/h 16.6 km/h 54% 0.0 mm
17:00 6.1 °C -2.0 °C 1015.1 hPa WSW 17.2 km/h 21.2 km/h 54% 0.0 mm
17:05 6.0 °C -2.0 °C 1015.1 hPa WSW 12.2 km/h 21.2 km/h 54% 0.0 mm
17:10 5.8 °C -2.0 °C 1015.1 hPa WSW 9.7 km/h 17.2 km/h 55% 0.0 mm
17:15 5.7 °C -3.0 °C 1015.1 hPa WSW 13.0 km/h 18.0 km/h 54% 0.0 mm
17:20 5.5 °C -2.0 °C 1015.1 hPa WSW 7.9 km/h 18.0 km/h 56% 0.0 mm
17:25 5.3 °C -2.0 °C 1015.1 hPa West 9.7 km/h 15.1 km/h 57% 0.0 mm
17:30 5.2 °C -2.0 °C 1014.1 hPa WSW 11.9 km/h 15.1 km/h 59% 0.0 mm
17:35 5.0 °C -2.0 °C 1014.1 hPa WSW 11.6 km/h 16.3 km/h 58% 0.0 mm
17:40 4.7 °C -3.0 °C 1014.1 hPa West 14.0 km/h 16.3 km/h 59% 0.0 mm
17:45 4.6 °C -2.0 °C 1015.1 hPa WSW 8.7 km/h 14.0 km/h 60% 0.0 mm
17:50 4.4 °C -2.0 °C 1015.1 hPa WSW 8.7 km/h 14.0 km/h 62% 0.0 mm
17:55 4.0 °C -2.0 °C 1015.1 hPa WSW 3.5 km/h 12.2 km/h 63% 0.0 mm
18:00 3.6 °C -2.0 °C 1015.1 hPa Calm   8.7 km/h 64% 0.0 mm
18:06 3.4 °C -2.0 °C 1015.1 hPa SW 6.9 km/h 9.0 km/h 65% 0.0 mm
18:11 3.3 °C -2.0 °C 1015.1 hPa WSW 6.9 km/h 9.7 km/h 67% 0.0 mm
18:16 3.1 °C -2.0 °C 1014.1 hPa WSW 7.9 km/h 10.1 km/h 68% 0.0 mm
18:21 3.1 °C -2.0 °C 1014.1 hPa SW 7.9 km/h 11.9 km/h 68% 0.0 mm
18:26 3.1 °C -2.0 °C 1014.1 hPa WSW 9.3 km/h 11.9 km/h 69% 0.0 mm
18:31 3.0 °C -2.0 °C 1015.1 hPa WSW 6.9 km/h 10.5 km/h 69% 0.0 mm
18:36 2.8 °C -2.0 °C 1015.1 hPa Calm   10.5 km/h 69% 0.0 mm
18:41 2.6 °C -2.0 °C 1015.1 hPa Calm   9.0 km/h 70% 0.0 mm
18:46 2.4 °C -2.0 °C 1015.1 hPa SSW 6.4 km/h 9.3 km/h 70% 0.0 mm
18:51 2.5 °C -1.0 °C 1015.1 hPa Calm   9.7 km/h 72% 0.0 mm
18:56 2.6 °C -1.0 °C 1015.1 hPa SW 9.7 km/h 10.5 km/h 72% 0.0 mm
19:01 2.7 °C -1.0 °C 1014.1 hPa SSW 6.1 km/h 10.8 km/h 72% 0.0 mm
19:06 2.7 °C -2.0 °C 1014.1 hPa SSW 6.1 km/h 10.8 km/h 71% 0.0 mm
19:11 2.7 °C -1.0 °C 1014.1 hPa Calm   9.7 km/h 72% 0.0 mm
19:16 2.8 °C -1.0 °C 1015.1 hPa WSW 4.3 km/h 9.7 km/h 71% 0.0 mm
19:21 2.9 °C -1.0 °C 1015.1 hPa SSW 5.8 km/h 9.7 km/h 71% 0.0 mm
19:26 2.9 °C -1.0 °C 1015.1 hPa Calm   9.7 km/h 71% 0.0 mm
19:31 2.8 °C -1.0 °C 1015.1 hPa Calm   9.7 km/h 71% 0.0 mm
19:36 2.6 °C -2.0 °C 1015.1 hPa Calm   6.9 km/h 71% 0.0 mm
19:41 2.5 °C -2.0 °C 1015.1 hPa Calm   6.9 km/h 71% 0.0 mm
19:46 2.3 °C -2.0 °C 1015.1 hPa Calm   4.7 km/h 71% 0.0 mm
19:52 2.1 °C -2.0 °C 1015.1 hPa Calm   4.7 km/h 72% 0.0 mm
19:57 2.0 °C -2.0 °C 1015.1 hPa Calm   4.7 km/h 72% 0.0 mm
20:02 2.0 °C -2.0 °C 1014.1 hPa Calm   2.1 km/h 73% 0.0 mm
20:07 1.9 °C -2.0 °C 1014.1 hPa Calm   6.4 km/h 73% 0.0 mm
20:12 1.9 °C -2.0 °C 1014.1 hPa South 1.4 km/h 6.4 km/h 74% 0.0 mm
20:17 1.8 °C -2.0 °C 1014.1 hPa Calm   6.9 km/h 74% 0.0 mm
20:22 1.7 °C -2.0 °C 1014.1 hPa SSW 5.0 km/h 6.9 km/h 75% 0.0 mm
20:27 1.7 °C -2.0 °C 1014.1 hPa Calm   6.9 km/h 76% 0.0 mm
20:32 1.6 °C -2.0 °C 1015.1 hPa Calm   5.5 km/h 76% 0.0 mm
20:37 1.6 °C -2.0 °C 1015.1 hPa SSW 1.4 km/h 7.9 km/h 76% 0.0 mm
20:42 1.7 °C -2.0 °C 1015.1 hPa SW 6.1 km/h 9.0 km/h 77% 0.0 mm
20:47 1.8 °C -2.0 °C 1014.1 hPa SW 6.4 km/h 10.1 km/h 78% 0.0 mm
20:52 1.9 °C -1.0 °C 1014.1 hPa SSW 6.1 km/h 10.1 km/h 78% 0.0 mm
20:57 2.1 °C -1.0 °C 1014.1 hPa SSW 9.3 km/h 9.7 km/h 77% 0.0 mm
21:02 2.3 °C -1.0 °C 1015.1 hPa SSW 7.9 km/h 13.7 km/h 78% 0.0 mm
21:07 2.5 °C -1.0 °C 1015.1 hPa SSW 9.0 km/h 13.7 km/h 77% 0.0 mm
21:12 2.6 °C -1.0 °C 1015.1 hPa SW 7.9 km/h 11.9 km/h 77% 0.0 mm
21:17 2.7 °C -1.0 °C 1015.1 hPa SSW 8.7 km/h 11.6 km/h 77% 0.0 mm
21:23 2.7 °C -1.0 °C 1015.1 hPa SSW 9.0 km/h 10.5 km/h 77% 0.0 mm
21:28 2.7 °C -1.0 °C 1015.1 hPa SSW 7.6 km/h 11.6 km/h 76% 0.0 mm
21:33 2.7 °C -1.0 °C 1014.1 hPa SSW 8.7 km/h 12.6 km/h 76% 0.0 mm
21:38 2.7 °C -1.0 °C 1014.1 hPa SSW 1.8 km/h 12.6 km/h 76% 0.0 mm
21:43 2.6 °C -1.0 °C 1014.1 hPa SW 8.7 km/h 10.5 km/h 76% 0.0 mm
21:48 2.5 °C -1.0 °C 1015.1 hPa SSW 9.0 km/h 11.9 km/h 76% 0.0 mm
21:53 2.5 °C -1.0 °C 1015.1 hPa Calm   11.9 km/h 76% 0.0 mm
21:58 2.4 °C -1.0 °C 1015.1 hPa SSW 7.9 km/h 10.5 km/h 77% 0.0 mm
22:03 2.3 °C -1.0 °C 1015.1 hPa Calm   10.5 km/h 77% 0.0 mm
22:08 2.2 °C -1.0 °C 1015.1 hPa Calm   8.7 km/h 77% 0.0 mm
22:13 2.1 °C -1.0 °C 1015.1 hPa SW 5.0 km/h 7.9 km/h 78% 0.0 mm
22:18 2.1 °C -1.0 °C 1015.1 hPa Calm   7.9 km/h 78% 0.0 mm
22:23 2.1 °C -1.0 °C 1015.1 hPa Calm   6.4 km/h 78% 0.0 mm
22:28 2.0 °C -1.0 °C 1015.1 hPa Calm   7.9 km/h 79% 0.0 mm
22:33 1.9 °C -1.0 °C 1015.1 hPa South 6.9 km/h 7.9 km/h 79% 0.0 mm
22:38 1.8 °C -1.0 °C 1015.1 hPa SSW 6.1 km/h 6.9 km/h 79% 0.0 mm
22:43 1.7 °C -1.0 °C 1015.1 hPa Calm   6.9 km/h 79% 0.0 mm
22:48 1.6 °C -1.0 °C 1015.1 hPa Calm   5.0 km/h 79% 0.0 mm
22:53 1.4 °C -1.0 °C 1015.1 hPa Calm   6.1 km/h 80% 0.0 mm
22:59 1.4 °C -1.0 °C 1015.1 hPa South 3.5 km/h 6.1 km/h 80% 0.0 mm
23:04 1.3 °C -1.0 °C 1015.1 hPa Calm   6.4 km/h 81% 0.0 mm
23:09 1.2 °C -1.0 °C 1015.1 hPa Calm   6.4 km/h 81% 0.0 mm
23:14 1.1 °C -1.0 °C 1015.1 hPa SSW 5.8 km/h 6.1 km/h 82% 0.0 mm
23:19 1.1 °C -1.0 °C 1015.1 hPa Calm   9.3 km/h 84% 0.0 mm
23:24 1.1 °C -1.0 °C 1015.1 hPa Calm   11.1 km/h 84% 0.0 mm
23:29 1.1 °C -1.0 °C 1014.1 hPa SSW 6.9 km/h 11.1 km/h 85% 0.0 mm
23:34 1.1 °C -1.0 °C 1014.1 hPa Calm   9.7 km/h 85% 0.0 mm
23:39 1.1 °C -1.0 °C 1014.1 hPa South 6.9 km/h 6.9 km/h 85% 0.0 mm
23:44 1.0 °C -1.0 °C 1014.1 hPa Calm   6.9 km/h 85% 0.0 mm
23:49 0.9 °C -1.0 °C 1014.1 hPa Calm   6.1 km/h 86% 0.0 mm
23:54 0.9 °C -1.0 °C 1014.1 hPa Calm   5.5 km/h 86% 0.0 mm
23:59 0.8 °C -1.0 °C 1014.1 hPa Calm   2.1 km/h 86% 0.0 mm
Données Historique de Météo Turbie

Mise a jour : 18/06/2018 07:57:11
Généré par Cumulus 1.9.4 (1099)